Fort Knox, KY

1:16 PM EDT on July 24, 2017 (GMT -0400)
Godman Army Air Field

Weather History for KFTK - August, 2014

Change the Weather History Date:

Wednesday, August 27, 2014

  Actual Average Record
Temperature  
Mean Temperature 80 °F -  
Max Temperature 90 °F 83 °F 91 °F (2003)
Min Temperature 69 °F 63 °F 55 °F (2015)
Cooling Degree Days 14    
Growing Degree Days 30 (Base 50)    
Moisture  
Dew Point 71 °F    
Average Humidity 93    
Maximum Humidity 100    
Minimum Humidity 58    
Precipitation  
Precipitation 0.28 in - - ()
Sea Level Pressure  
Sea Level Pressure 30.07 in    
Wind  
Wind Speed 2 mph (NNW)    
Max Wind Speed 23 mph    
Max Gust Speed 32 mph    
Visibility 8 miles    
Events Fog , Rain , Thunderstorm    
Averages and records for this station are not official NWS values.
T = Trace of Precipitation, MM = Missing Value Source: NWS Daily Summary

Daily Weather History Graph

Daily Weather History Graph

Search for Another Location

Airport or City:

Trip Planner

Search our weather history database for the weather conditions in past years. The results will help you decide how hot, cold, wet, or windy it might be!

Date:

Astronomy

Aug. 27, 2014 Rise Set
Actual Time 7:09 AM EDT 8:20 PM EDT
Civil Twilight 6:42 AM EDT 8:47 PM EDT
Nautical Twilight 6:09 AM EDT 9:20 PM EDT
Astronomical Twilight 5:35 AM EDT 9:53 PM EDT
Moon 9:02 AM EDT (8/27) 9:15 PM EDT (8/27)
Length of Visible Light 14h 05m
Length of Day
13h 11m
Waxing Crescent, 4% of the Moon is Illuminated
Aug 27
Waxing Crescent
Sep 2
First Quarter
Sep 8
Full
Sep 15
Last Quarter
Sep 24
New

Hourly Weather History & Observations

Time (EDT) Temp. Heat Index Dew Point Humidity Pressure Visibility Wind Dir Wind Speed Gust Speed Precip Events Conditions
12:29 AM 75.2 °F - 75.2 °F 100% 30.07 in 10.0 mi Calm Calm - N/A   Scattered Clouds
12:30 AM 75.2 °F - 75.2 °F 100% 30.08 in 10.0 mi Calm Calm - N/A   Scattered Clouds
12:31 AM 75.2 °F - 75.2 °F 100% 30.07 in 10.0 mi Calm Calm - N/A   Scattered Clouds
12:32 AM 75.2 °F - 75.2 °F 100% 30.08 in 10.0 mi Calm Calm - N/A   Scattered Clouds
12:33 AM 75.2 °F - 75.2 °F 100% 30.07 in 10.0 mi Calm Calm - N/A   Scattered Clouds
12:37 AM 75.2 °F - 75.2 °F 100% 30.08 in 10.0 mi Calm Calm - N/A   Partly Cloudy
12:54 AM 73.4 °F - 73.4 °F 100% 30.07 in 10.0 mi Calm Calm - N/A   Clear
12:58 AM 73.4 °F - 73.4 °F 100% 30.06 in 10.0 mi ESE 1.2 mph - N/A   Clear
12:59 AM 73.4 °F - 73.4 °F 100% 30.08 in 10.0 mi Calm Calm - N/A   Clear
1:29 AM 71.6 °F - 71.6 °F 100% 30.09 in 10.0 mi NW 1.2 mph - N/A   Clear
1:30 AM 71.6 °F - 71.6 °F 100% 30.08 in 10.0 mi Calm Calm - N/A   Clear
1:37 AM 71.6 °F - 71.6 °F 100% 30.09 in 10.0 mi West 1.2 mph - N/A   Clear
1:58 AM 72.1 °F - 72.1 °F 100% 30.08 in 10.0 mi NNW 2.3 mph - N/A   Clear
2:58 AM 71.1 °F - 71.1 °F 100% 30.08 in 8.0 mi NNW 2.3 mph - 0.00 in   Clear
3:24 AM 71.6 °F - 71.6 °F 100% 30.08 in 10.0 mi East 1.2 mph - N/A   Clear
3:29 AM 71.6 °F - 71.6 °F 100% 30.09 in 10.0 mi Calm Calm - N/A   Clear
3:34 AM 71.6 °F - 71.6 °F 100% 30.08 in 9.0 mi NNW 1.2 mph - N/A   Clear
3:48 AM 69.8 °F - 69.8 °F 100% 30.09 in 9.0 mi NW 2.3 mph - N/A   Clear
3:52 AM 69.8 °F - 69.8 °F 100% 30.08 in 9.0 mi WNW 2.3 mph - N/A   Clear
3:58 AM 70.7 °F - 70.7 °F 100% 30.07 in 9.0 mi Calm Calm - N/A   Clear
4:18 AM 71.6 °F - 71.6 °F 100% 30.07 in 10.0 mi Calm Calm - N/A   Clear
4:19 AM 71.6 °F - 71.6 °F 100% 30.08 in 10.0 mi Calm Calm - N/A   Clear
4:21 AM 71.6 °F - 71.6 °F 100% 30.07 in 10.0 mi SSW 2.3 mph - N/A   Clear
4:41 AM 69.8 °F - 69.8 °F 100% 30.08 in 6.0 mi Calm Calm - N/A   Clear
4:42 AM 69.8 °F - 69.8 °F 100% 30.07 in 6.0 mi Calm Calm - N/A   Clear
4:43 AM 69.8 °F - 69.8 °F 100% 30.08 in 6.0 mi Calm Calm - N/A   Clear
4:44 AM 69.8 °F - 69.8 °F 100% 30.07 in 6.0 mi Calm Calm - N/A   Clear
4:45 AM 69.8 °F - 69.8 °F 100% 30.08 in 6.0 mi Calm Calm - N/A   Clear
4:46 AM 69.8 °F - 69.8 °F 100% 30.07 in 6.0 mi Calm Calm - N/A   Clear
4:47 AM 69.8 °F - 69.8 °F 100% 30.08 in 6.0 mi Calm Calm - N/A   Clear
4:48 AM 69.8 °F - 69.8 °F 100% 30.07 in 7.0 mi Calm Calm - N/A   Clear
4:49 AM 69.8 °F - 69.8 °F 100% 30.08 in 7.0 mi Calm Calm - N/A   Clear
4:50 AM 69.8 °F - 69.8 °F 100% 30.07 in 7.0 mi Calm Calm - N/A   Clear
4:57 AM 69.8 °F - 69.8 °F 100% 30.08 in 7.0 mi Calm Calm - N/A   Clear
4:58 AM 69.8 °F - 69.8 °F 100% 30.07 in 7.0 mi Calm Calm - N/A   Clear
4:59 AM 69.8 °F - 69.8 °F 100% 30.07 in 7.0 mi Calm Calm - N/A   Clear
5:11 AM 69.8 °F - 69.8 °F 100% 30.08 in 6.0 mi Calm Calm - N/A   Clear
5:12 AM 69.8 °F - 69.8 °F 100% 30.07 in 6.0 mi Calm Calm - N/A   Clear
5:14 AM 69.8 °F - 69.8 °F 100% 30.08 in 6.0 mi Calm Calm - N/A   Clear
5:21 AM 69.8 °F - 69.8 °F 100% 30.07 in 7.0 mi Calm Calm - N/A   Clear
5:22 AM 69.8 °F - 69.8 °F 100% 30.08 in 7.0 mi Calm Calm - N/A   Clear
5:30 AM 69.8 °F - 69.8 °F 100% 30.07 in 8.0 mi Calm Calm - N/A   Clear
5:31 AM 69.8 °F - 69.8 °F 100% 30.08 in 8.0 mi Calm Calm - N/A   Clear
5:32 AM 69.8 °F - 69.8 °F 100% 30.07 in 8.0 mi Calm Calm - N/A   Clear
5:34 AM 69.8 °F - 69.8 °F 100% 30.08 in 9.0 mi Calm Calm - N/A   Clear
5:35 AM 69.8 °F - 69.8 °F 100% 30.07 in 9.0 mi Calm Calm - N/A   Clear
5:58 AM 69.4 °F - 69.4 °F 100% 30.06 in 7.0 mi North 2.3 mph - N/A   Clear
6:06 AM 69.8 °F - 69.8 °F 100% 30.08 in 6.0 mi North 2.3 mph - N/A   Clear
6:43 AM 69.8 °F - 69.8 °F 100% 30.09 in 6.0 mi Calm Calm - N/A   Clear
6:48 AM 69.8 °F - 69.8 °F 100% 30.09 in 1.5 mi Calm Calm - N/A   Clear
6:53 AM 69.8 °F - 69.8 °F 100% 30.09 in 0.8 mi Calm Calm - N/A   Clear
6:58 AM 69.8 °F - 69.8 °F 100% 30.08 in 0.5 mi Calm Calm - N/A Fog Fog
7:03 AM 69.8 °F - 69.8 °F 100% 30.09 in 0.8 mi Calm Calm - N/A   Clear
7:08 AM 69.8 °F - 69.8 °F 100% 30.09 in 2.0 mi Calm Calm - N/A   Clear
7:13 AM 69.8 °F - 69.8 °F 100% 30.09 in 4.0 mi Calm Calm - N/A   Clear
7:42 AM 69.8 °F - 69.8 °F 100% 30.10 in 5.0 mi Calm Calm - N/A   Clear
7:58 AM 69.8 °F - 69.8 °F 100% 30.09 in 3.0 mi Calm Calm - N/A   Clear
8:12 AM 71.6 °F - 71.6 °F 100% 30.11 in 7.0 mi Calm Calm - N/A   Clear
8:13 AM 71.6 °F - 71.6 °F 100% 30.10 in 7.0 mi NNW 1.2 mph - N/A   Clear
8:14 AM 71.6 °F - 71.6 °F 100% 30.11 in 7.0 mi Calm Calm - N/A   Clear
8:16 AM 71.6 °F - 71.6 °F 100% 30.10 in 7.0 mi Calm Calm - N/A   Clear
8:17 AM 71.6 °F - 71.6 °F 100% 30.11 in 8.0 mi Calm Calm - N/A   Clear
8:19 AM 71.6 °F - 71.6 °F 100% 30.10 in 8.0 mi Calm Calm - N/A   Clear
8:20 AM 71.6 °F - 71.6 °F 100% 30.11 in 8.0 mi Calm Calm - N/A   Clear
8:58 AM 75.2 °F - 75.2 °F 100% 30.10 in 10.0 mi Calm Calm - N/A   Clear
9:58 AM 80.2 °F 83.2 °F 69.4 °F 69% 30.09 in 10.0 mi Calm Calm - 0.00 in   Clear
10:58 AM 83.8 °F 87.5 °F 69.3 °F 61% 30.10 in 10.0 mi West 2.3 mph - 0.00 in   Clear
11:58 AM 85.1 °F 91.1 °F 72.1 °F 65% 30.10 in 10.0 mi NW 6.9 mph - N/A   Clear
12:58 PM 86.7 °F 94.1 °F 73.0 °F 64% 30.10 in 10.0 mi North 3.5 mph - N/A   Clear
1:42 PM 87.8 °F 95.6 °F 73.4 °F 62% 30.08 in 10.0 mi Variable 2.3 mph - N/A   Clear
1:58 PM 88.5 °F 96.3 °F 73.0 °F 60% 30.07 in 10.0 mi Variable 4.6 mph - N/A   Partly Cloudy
2:58 PM 89.2 °F 97.4 °F 73.0 °F 59% 30.06 in 10.0 mi SSW 3.5 mph - N/A   Clear
3:58 PM 90.0 °F 98.5 °F 73.4 °F 58% 30.04 in 10.0 mi WNW 6.9 mph - N/A   Partly Cloudy
4:58 PM 89.2 °F 98.4 °F 74.3 °F 61% 30.04 in 10.0 mi North 4.6 mph - N/A Thunderstorm Clear
5:24 PM 84.2 °F 88.4 °F 69.8 °F 62% 30.04 in 10.0 mi East 10.4 mph - N/A Thunderstorm Thunderstorm
5:39 PM 84.2 °F 88.4 °F 69.8 °F 62% 30.03 in 10.0 mi East 10.4 mph - N/A Thunderstorm Clear
5:57 PM 84.2 °F 89.6 °F 71.6 °F 66% 30.02 in 10.0 mi ESE 10.4 mph - N/A Thunderstorm Thunderstorm
5:58 PM 84.2 °F 89.6 °F 71.6 °F 66% 30.01 in 10.0 mi ESE 10.4 mph - N/A Thunderstorm Thunderstorm
6:12 PM 84.2 °F 89.6 °F 71.6 °F 66% 30.02 in 10.0 mi East 9.2 mph - N/A Thunderstorm Clear
6:18 PM 84.2 °F 89.6 °F 71.6 °F 66% 30.04 in 10.0 mi ENE 8.1 mph - N/A Thunderstorm Thunderstorm
6:37 PM 78.8 °F - 69.8 °F 74% 30.07 in 10.0 mi North 21.9 mph 32.2 mph N/A Thunderstorm Thunderstorm
6:38 PM 78.8 °F - 69.8 °F 74% 30.07 in 10.0 mi North 23.0 mph 32.2 mph N/A Thunderstorm Thunderstorm
6:51 PM 75.2 °F - 68.0 °F 78% 30.07 in 9.0 mi North 12.7 mph - N/A Rain , Thunderstorm Light Thunderstorms and Rain
6:56 PM 73.4 °F - 69.8 °F 88% 30.07 in 1.8 mi NNW 15.0 mph - N/A Rain , Thunderstorm Light Thunderstorms and Rain
6:58 PM 73.4 °F - 69.8 °F 88% 30.06 in 1.5 mi NNW 13.8 mph - 0.04 in Rain , Thunderstorm Heavy Thunderstorms and Rain
7:03 PM 71.6 °F - 68.0 °F 88% 30.06 in 1.0 mi North 9.2 mph - N/A Rain , Thunderstorm Heavy Thunderstorms and Rain
7:08 PM 71.6 °F - 68.0 °F 88% 30.06 in 1.8 mi NNW 6.9 mph - N/A Rain , Thunderstorm Heavy Thunderstorms and Rain
7:13 PM 71.6 °F - 69.8 °F 94% 30.06 in 2.5 mi NNW 4.6 mph - N/A Rain , Thunderstorm Heavy Thunderstorms and Rain
7:18 PM 71.6 °F - 69.8 °F 94% 30.05 in 3.0 mi WSW 5.8 mph - N/A Rain , Thunderstorm Thunderstorms and Rain
7:19 PM 71.6 °F - 69.8 °F 94% 30.05 in 3.0 mi WSW 5.8 mph - N/A Rain , Thunderstorm Rain
7:42 PM 71.6 °F - 69.8 °F 94% 30.05 in 10.0 mi West 4.6 mph - N/A Thunderstorm Scattered Clouds
7:58 PM 71.8 °F - 71.8 °F 100% 30.04 in 8.0 mi SSW 6.9 mph - 0.24 in Thunderstorm Clear
8:58 PM 72.0 °F - 72.0 °F 100% 30.04 in 10.0 mi Calm Calm - 0.00 in   Partly Cloudy
9:58 PM 71.6 °F - 71.6 °F 100% 30.04 in 10.0 mi WSW 2.3 mph - N/A   Mostly Cloudy
10:58 PM 71.6 °F - 71.6 °F 100% 30.04 in 10.0 mi NW 3.5 mph - N/A   Clear
11:58 PM 71.6 °F - 71.6 °F 100% 30.04 in 10.0 mi South 2.3 mph - N/A   Clear